sat.trackr.live / text

‹ back to catalog

LEMUR-2-MARIO-SOUSA

NORAD 67365 · 2026-004C

PAYLOAD ACTIVE UNKNOWN

§ Identity

Operator
Country
US
Launch date
2026-01-11
Launch site
AFWTR
Launch vehicle
Mass (kg)
RCS (m²)

Purposes: earth_obs

External: N2YO · Heavens-Above · Gunter

§ Orbital elements

Epoch: 2026-05-24T23:48:14.029056Z

Period
96.76 min
Inclination
97.7991°
Eccentricity
0.0007404
Mean motion
14.88295029 rev/d
Perigee alt
598.1 km
Apogee alt
608.4 km
Semi-major
6,981.4 km
B*
4.2184e-4
RAAN
143.9080°
Arg perigee
206.6688°
Mean anomaly
153.4148°
Rev number
1,984

§ Raw data

LEMUR-2-MARIO-SOUSA1 67365U 26004C   26144.99182904  .00003848  00000+0  42184-3 0  99922 67365  97.7991 143.9080 0007404 206.6688 153.4148 14.88295029 19843

JSON: /api/v1/satellites/67365 · /tle

For live sub-satellite position, see the globe view (requires WebGL).

§ Visibility from observer

Set your observer location to see the next 7 days of passes ≥ 10°. The values pass through the URL so the page stays shareable.

No JS? Fill the form by hand. The geolocation button needs JavaScript.